This is the latest recevied weather packets stored in our database for station/object CA3DJL-10. If no packets are shown the sender has not sent any weather packets the latest 1 day(s).
| Time | Temp. | Humidity | Pressure | Rain* | Wind** | Luminosity | Snow |
|---|---|---|---|---|---|---|---|
| 1777849798 | 29.44° C | 21% | 986 hPa | - | - | - | - |
| 1777848897 | 30° C | 21% | 986 hPa | - | - | - | - |
| 1777847995 | 31.11° C | 21% | 986 hPa | - | - | - | - |
| 1777847094 | 31.67° C | 21% | 986 hPa | - | - | - | - |
| 1777846193 | 32.22° C | 20% | 986 hPa | - | - | - | - |
| 1777845292 | 33.33° C | 20% | 985 hPa | - | - | - | - |
| 1777844391 | 33.89° C | 20% | 985 hPa | - | - | - | - |
| 1777843490 | 33.89° C | 20% | 985 hPa | - | - | - | - |
| 1777842589 | 33.89° C | 20% | 985 hPa | - | - | - | - |
| 1777841688 | 33.89° C | 19% | 985 hPa | - | - | - | - |
| 1777840787 | 34.44° C | 20% | 985 hPa | - | - | - | - |
| 1777839886 | 34.44° C | 19% | 984 hPa | - | - | - | - |
| 1777838985 | 34.44° C | 20% | 985 hPa | - | - | - | - |
| 1777838083 | 34.44° C | 18% | 984 hPa | - | - | - | - |
| 1777837182 | 34.44° C | 20% | 984 hPa | - | - | - | - |
| 1777836281 | 34.44° C | 22% | 984 hPa | - | - | - | - |
| 1777835380 | 33.89° C | 21% | 985 hPa | - | - | - | - |
| 1777834479 | 33.33° C | 24% | 985 hPa | - | - | - | - |
| 1777833578 | 32.78° C | 24% | 985 hPa | - | - | - | - |
| 1777832677 | 32.78° C | 25% | 985 hPa | - | - | - | - |
| 1777831776 | 31.67° C | 26% | 985 hPa | - | - | - | - |
* Rain since midnight (hover to see other rain measurements)
** Current wind speed in m/s (hover to see current wind gust speed)